www.pogodaiklimat.ru

Погода и климат >> Архив погоды >> Китай >> Хэйлунцзян >> Тайлай


ПОГОДА в Тайлае

  • Прогноз погоды в Тайлае
  • Монитор погоды в Тайлае

АРХИВ ПОГОДЫ в Тайлае

Время (UTC), дата Ветер
(напр.,м/с)
 
Видим.   Явления Облачность Т
(С)
Тd
(С)
f
(%)
Тe
(С)
Тes
(С)
Комфортность P
(гПа)
Po
(гПа)
Тmin
(С)
Tmax
(С)
R
(мм)
R24
(мм)
S
(см)
18 11.08 С 2 15 км ?/? +17.5 +16.5 94 +18 +18 1007.0 989.4 +20.0
21 11.08 С 3 9000 м н/о +16.0 +15.4 96 +15 +15 1007.7 990.0
00 12.08 СВ 4 23 км 4/4 1500 м
[]
+19.7 +16.3 81 +22 +25 комфорт 1008.6 991.1
03 12.08 С 5 22 км 8/8 1000 м
[]
+22.7 +16.0 66 +27 +29 душно 1007.9 990.6
06 12.08 С 4 25 км 9/9 1000 м
[]
+23.4 +16.7 66 +28 +29 душно 1007.3 990.0 +15.8
09 12.08 В 2 30 км 6/6
[]
+23.6 +16.9 66 +27 +28 жарко 1007.4 990.1
12 12.08 штиль 0 21 км ясно +19.1 +17.6 91 +21 +21 комфорт 1008.2 990.7
18 12.08 З 1 3300 м ?/? +15.8 +15.2 96 +16 +16 1007.8 990.1 +24.0
21 12.08 С 2 8000 м н/о +17.7 +17.2 97 +18 +18 1007.2 989.6
00 13.08 СВ 2 30 км 6/6
[]
+21.0 +17.2 79 +26 +28 душно 1007.3 989.9
03 13.08 С 3 30 км 8/8 1000 м
[]
+24.2 +18.2 69 +29 +31 душно 1006.6 989.4
06 13.08 СВ 4 30 км 8/8 1000 м
[]
+25.1 +17.3 62 +29 +31 душно 1005.7 988.6 +15.8
09 13.08 СВ 2 30 км 8/8 1500 м
[]
+24.2 +18.4 70 +29 +29 душно 1005.0 987.8
12 13.08 СВ 1 11 км 6/6 1500 м
[]
+20.9 +19.0 89 +26 +26 душно 1004.7 987.3
18 13.08 С 2 30 км ?/? +19.3 +17.8 91 +22 +22 комфорт 1003.6 987.5 +25.3
21 13.08 С 2 17 км н/о +18.2 +17.0 93 +19 +19 1003.1 985.6
00 14.08 С 3 23 км 6/6
[]
+22.4 +18.8 80 +28 +30 душно 1003.3 986.0
03 14.08 С 3 27 км 5/5
[]
+25.9 +19.8 69 +32 +38 очень
душно
1002.7 985.7
06 14.08 С 3 30 км 8/8
[]
+26.5 +17.6 58 +31 +33 душно 1002.4 985.4 +17.7
09 14.08 С 2 30 км 8/8
[]
+24.1 +18.1 69 +28 +29 душно 1002.2 985.1
12 14.08 З 1 19 км 8/8
[]
+19.6 +18.3 92 +23 +23 комфорт 1002.3 984.9
18 14.08 СЗ 1 7000 м дымка ?/? +16.2 +15.4 95 +17 +17 1002.2 984.6 +27.0
21 14.08 С 1 19 км н/о +16.2 +15.6 96 +17 +17 1001.9 984.3
00 15.08 СВ 2 30 км 9/9
[]
+21.0 +17.8 82 +26 +26 душно 1001.4 984.1
03 15.08 С 3 30 км 5/5 1500 м
[]
+26.1 +16.9 57 +30 +36 душно 1000.9 983.9
06 15.08 В 3 30 км 5/5 1500 м
[]
+27.5 +16.8 52 +31 +36 душно 999.7 982.8 +15.5
09 15.08 В 3 30 км 5/5 1500 м
[]
+26.9 +16.5 53 +30 +31 душно 998.5 981.6
12 15.08 С 2 13 км 5/5 1500 м
[]
+21.2 +17.8 81 +25 +25 комфорт 998.9 981.7
18 15.08 С 3 20 км ?/? +19.2 +17.7 91 +21 +21 комфорт 997.3 980.0 +27.9
21 15.08 С 4 6000 м дымка н/о +18.3 +17.7 96 +19 +19 997.3 979.9
00 16.08 С 7 18 км 10/10 1500 м
[]
+19.4 +18.1 92 +21 +21 комфорт 997.6 980.3
03 16.08 С 7 24 км 10/10 1500 м
[]
+19.8 +16.8 83 +22 +22 комфорт 996.7 979.4
06 16.08 С 5 30 км 9/9 1000 м
[]
+22.5 +18.1 76 +28 +28 душно 995.8 978.7 +17.9
09 16.08 СВ 5 30 км {дождь} 9/9 1000 м
[]
+21.9 +16.8 73 +26 +26 душно 995.4 978.3
12 16.08 С 4 25 км {дождь} 8/8 1500 м
[]
+18.9 +17.2 90 +20 +20 995.3 978.0 0.0
18 16.08 С 4 3800 м слаб. дождь ?/? +17.6 +16.8 95 +17 +17 994.3 976.9 +23.7 0.7
21 16.08 С 5 8000 м н/о +17.2 +16.2 94 +17 +17 994.8 977.4
00 17.08 С 4 24 км 9/9 1500 м
[]
+18.4 +16.0 86 +19 +19 995.2 977.9 0.2
03 17.08 С 4 30 км 9/9 1500 м
[]
+21.2 +16.0 72 +25 +26 комфорт 995.6 978.4
06 17.08 С 4 30 км 9/9 1500 м
[]
+21.3 +15.4 69 +24 +25 комфорт 995.7 978.5 +17.1
09 17.08 С 6 30 км {дождь} 9/9 1500 м
[]
+21.1 +14.7 67 +24 +24 комфорт 996.5 979.3
12 17.08 С 3 30 км {дождь} 9/9 1500 м
[]
+19.1 +15.8 81 +21 +21 комфорт 998.5 981.1
18 17.08 З 1 30 км ?/? +15.7 +14.1 90 +16 +16 1000.2 982.6 +22.8
21 17.08 З 1 30 км н/о +14.8 +13.7 93 +15 +15 1001.6 983.9
00 18.08 С 3 30 км 9/9 1500 м
[]
+19.5 +14.3 72 +21 +22 комфорт 1003.1 985.7
03 18.08 СЗ 2 30 км 8/8 1000 м
[]
+22.0 +13.1 57 +25 +28 комфорт 1003.8 986.5
06 18.08 С 3 30 км 6/6 1000 м
[]
+23.3 +14.0 56 +27 +31 душно 1003.7 986.5 +14.5
09 18.08 В 2 30 км 5/5 1000 м
[]
+23.7 +14.1 55 +26 +27 жарко 1004.3 987.1
12 18.08 В 2 7000 м 5/5 1500 м
[]
+18.3 +15.7 85 +19 +19 1006.4 990.1

 

Местоположение метеостанции Тайлай (Хэйлунцзян, Китай): широта 46.40 долгота 123.41 высота над уровнем моря 150 м.

В архиве по умолчанию представлена погода в Тайлае за последнюю неделю. Архивные данные за месяц целиком и за предыдущие месяцы, начиная с января 2011 года, Вы можете получить, выбрав интересующий диапазон дат из раскрывающегося списка и нажав кнопку "Ввод!".


*Определитесь, кто Вы:
робот инопланетянин человек

Внимание! Время в таблицах - всемирное. Для получения местного времени необходимо прибавить поправку, которая равна 8 ч.

Смотрите также архив погоды в соседних городах и на ближайших метеорологических станциях:

Погода в Цицикаре (Хэйлунцзян, Китай) (115 км)
Погода в Аньда (Хэйлунцзян, Китай) (146 км)
Погода в Цянь Горлос (Гирин, Китай) (185 км)
Погода в Чанлине (Гирин, Китай) (243 км)
Погода в Кэшане (Хэйлунцзян, Китай) (262 км)
Погода в Харбине (Хэйлунцзян, Китай) (268 км)
Погода в Аршане (Внутренняя Монголия, Китай) (279 км)
Погода в Джаруд-Ци (Внутренняя Монголия, Китай) (282 км)
Погода в Ксиджоу (Внутренняя Монголия, Китай) (287 км)
Погода в Хайлуне (Хэйлунцзян, Китай) (293 км)

Пояснения к столбцам:

Ветер - указаны скорость ветра в м/с - средняя за 10 мин, порывы в срок и между сроками (в фигурных скобках) и направление, откуда дует ветер: С - северный, СВ - северо-восточный, В - восточный, ЮВ - юго-восточный, Ю - южный, ЮЗ - юго-западный, З - западный, СЗ - северо-западный.
Видимость - горизонтальная дальность видимости в метрах или километрах. При видимости от 1 до 10 км при отсутствии осадков обычно наблюдается дымка, при ухудшении видимости до 1 км и менее - туман. В сухую погоду видимость может ухудшаться дымом, пылью или мглою.
Явления - указаны атмосферные явления, наблюдавшиеся в срок или в последний час перед сроком; фигурными скобками обозначены явления, наблюдавшиеся между сроками (за 1-3 часа до срока); квадратными скобками обозначены град или гололедные отложения с указанием их диаметра в мм.
Облачность - указаны через наклонную черту общая и нижняя облачность в баллах и высота нижней границы облаков в метрах; квадратными скобками обозначены формы облаков: Ci - перистые, Cs - перисто-слоистые, Cc - перисто-кучевые, Ac - высококучевые, As - высокослоистые, Sc - слоисто-кучевые, Ns - слоисто-дождевые, Cu - кучевые, Cb - кучево-дождевые. Подробнее классификацию облаков см. в Атласе облаков (PDF).
T - Температура воздуха - температура, измеренная на высоте 2 м над землей.
Td - Температура точки росы - температура, при понижении до которой содержащийся в воздухе водяной пар достигнет насыщения.
f - Относительная влажность воздуха - влажноcть воздуха, измеренная на высоте 2 м над землей.
Te - Эффективная температура - температура, которую ощущает одетый по сезону человек в тени. Характеристика душности погоды. При расчете учитывается влияние влажности воздуха и скорости ветра на теплоощущения человека.
Tes - Эффективная температура на солнце - температура, которую ощущает человек, с поправкой на солнечный нагрев. Характеристика знойности погоды. Зависит от высоты солнца над горизонтом, облачности и скорости ветра. Ночью, в пасмурную погоду, а также при ветре 12 м/с и более поправка равна нулю.
P - Атмосферное давление - приведенное к уровню моря атмосферное давление.
Po - Атмосферное давление - измеренное на уровне метеостанции атмосферное давление.
Tmin - Минимальная температура - минимум температуры воздуха на высоте 2 м над землей.
Tmax - Максимальная температура - максимум температуры воздуха на высоте 2 м над землей.
R - Количество осадков - Количество выпавших осадков за период времени, мм. При наведении курсора мыши на число - период времени, за который выпало указанное количество осадков.
R24 - Количество осадков - Количество выпавших осадков за 24 часа, мм.
S - Снежный покров - Высота снежного покрова, см. При наведении курсора мыши на число - состояние снежного покрова и степень покрытия местности в баллах.